Savannah, GA

1:34 PM EDT on July 22, 2017 (GMT -0400)
Savannah International

Weather History for KSAV - January, 2013

Change the Weather History Date:

Friday, January 18, 2013

  Actual Average Record
Temperature  
Mean Temperature 49 °F 49 °F  
Max Temperature 59 °F 60 °F 81 °F (1937)
Min Temperature 38 °F 38 °F 20 °F (1957)
Degree Days  
Heating Degree Days 16 16  
Month to date heating degree days 124 288  
Since 1 July heating degree days 743 978  
Cooling Degree Days 0 0  
Month to date cooling degree days 24 0  
Year to date cooling degree days 24 0  
Moisture  
Dew Point 30 °F    
Average Humidity 51    
Maximum Humidity 79    
Minimum Humidity 23    
Precipitation  
Precipitation 0.00 in 0.12 in 3.48 in (1883)
Month to date precipitation 0.29 2.05  
Year to date precipitation 0.29 2.05  
Snow  
Snow 0.00 in 0.00 in - ()
Month to date snowfall 0.0  
Since 1 July snowfall 0.0 0.2  
Snow Depth 0.00 in    
Sea Level Pressure  
Sea Level Pressure 30.36 in    
Wind  
Wind Speed 11 mph (North)    
Max Wind Speed 21 mph    
Max Gust Speed 29 mph    
Visibility 10 miles    
Events      
T = Trace of Precipitation, MM = Missing Value Source: NWS Daily Summary

Daily Weather History Graph

Daily Weather History Graph

Search for Another Location

Airport or City:

Trip Planner

Search our weather history database for the weather conditions in past years. The results will help you decide how hot, cold, wet, or windy it might be!

Date:

Astronomy

Jan. 18, 2013 Rise Set
Actual Time 7:25 AM EST 5:45 PM EST
Civil Twilight 6:58 AM EST 6:12 PM EST
Nautical Twilight 6:28 AM EST 6:42 PM EST
Astronomical Twilight 5:59 AM EST 7:11 PM EST
Moon 11:31 AM EST (1/18) 12:07 AM EST (1/18)
Length of Visible Light 11h 13m
Length of Day
10h 20m
Waxing Crescent, 47% of the Moon is Illuminated
Jan 18
Waxing Crescent
Jan 18
First Quarter
Jan 26
Full
Feb 3
Last Quarter
Feb 10
New

Hourly Weather History & Observations

Time (EST) Temp. Windchill Dew Point Humidity Pressure Visibility Wind Dir Wind Speed Gust Speed Precip Events Conditions
12:09 AM 42.8 °F 37.5 °F 33.8 °F 70% 30.12 in 10.0 mi WNW 9.2 mph - N/A   Overcast
12:53 AM 44.1 °F 37.1 °F 35.1 °F 71% 30.14 in 10.0 mi NW 15.0 mph - N/A   Overcast
1:31 AM 44.6 °F 37.2 °F 35.6 °F 71% 30.16 in 10.0 mi NNW 17.3 mph 24.2 mph N/A   Scattered Clouds
1:53 AM 44.1 °F 37.4 °F 36.0 °F 73% 30.17 in 10.0 mi NNW 13.8 mph - N/A   Partly Cloudy
2:53 AM 44.1 °F 38.1 °F 37.9 °F 79% 30.20 in 10.0 mi North 11.5 mph - N/A   Clear
3:53 AM 45.0 °F 37.6 °F 37.9 °F 76% 30.24 in 10.0 mi North 17.3 mph - N/A   Clear
4:53 AM 44.1 °F 37.4 °F 36.0 °F 73% 30.27 in 10.0 mi NNE 13.8 mph - N/A   Clear
5:53 AM 43.0 °F 36.4 °F 35.1 °F 74% 30.30 in 10.0 mi North 12.7 mph 20.7 mph N/A   Clear
6:53 AM 41.0 °F 34.7 °F 35.1 °F 79% 30.35 in 10.0 mi North 10.4 mph - N/A   Clear
7:53 AM 41.0 °F 33.9 °F 35.1 °F 79% 30.38 in 10.0 mi North 12.7 mph - N/A   Partly Cloudy
8:53 AM 45.0 °F 39.3 °F 35.1 °F 68% 30.41 in 10.0 mi NNE 11.5 mph - N/A   Clear
9:53 AM 46.9 °F - 33.1 °F 59% 30.45 in 10.0 mi North 16.1 mph 21.9 mph N/A   Clear
10:53 AM 51.1 °F - 30.9 °F 46% 30.46 in 10.0 mi NNE 13.8 mph - N/A   Partly Cloudy
11:53 AM 54.0 °F - 28.0 °F 37% 30.45 in 10.0 mi North 15.0 mph 20.7 mph N/A   Partly Cloudy
12:53 PM 55.9 °F - 25.0 °F 30% 30.43 in 10.0 mi North 11.5 mph - N/A   Partly Cloudy
1:53 PM 57.0 °F - 24.1 °F 28% 30.41 in 10.0 mi North 15.0 mph - N/A   Partly Cloudy
2:53 PM 57.9 °F - 23.0 °F 26% 30.41 in 10.0 mi North 9.2 mph - N/A   Partly Cloudy
3:53 PM 57.9 °F - 19.0 °F 22% 30.42 in 10.0 mi NNE 10.4 mph - N/A   Partly Cloudy
4:53 PM 55.9 °F - 19.0 °F 24% 30.43 in 10.0 mi NNE 11.5 mph - N/A   Partly Cloudy
5:53 PM 50.0 °F - 21.0 °F 32% 30.44 in 10.0 mi NNE 6.9 mph - N/A   Clear
6:53 PM 46.9 °F - 21.9 °F 37% 30.47 in 10.0 mi NNE 4.6 mph - N/A   Clear
7:53 PM 43.0 °F 39.5 °F 27.0 °F 53% 30.49 in 10.0 mi NNE 5.8 mph - N/A   Clear
8:53 PM 43.0 °F 40.3 °F 25.0 °F 49% 30.49 in 10.0 mi NNE 4.6 mph - N/A   Clear
9:53 PM 44.1 °F 39.5 °F 26.1 °F 49% 30.49 in 10.0 mi NE 8.1 mph - N/A   Clear
10:53 PM 39.9 °F 35.8 °F 28.0 °F 63% 30.49 in 10.0 mi North 5.8 mph - N/A   Clear
11:53 PM 42.1 °F 37.7 °F 30.0 °F 62% 30.47 in 10.0 mi North 6.9 mph - N/A   Mostly Cloudy